Location: Beulah
(33.1426°N, 83.0557°W)
Time: 03:17:53
(UTC+00:00)

Envisat - Pass Details

Date: 08 December 2021
Orbit: 764 x 766 km, 98.2° (Epoch: 23 January)

Event Time Altitude Azimuth Distance (km) Brightness Sun altitude
Rises 09:47:16 0° 23° (NNE) 3,235 6.4 -31.9°
Reaches altitude 10° 09:49:48 10° 33° (NNE) 2,305 5.7 -31.4°
Maximum altitude 09:54:22 33° 97° (E) 1,256 4.6 -30.4°
Drops below altitude 10° 09:58:54 10° 162° (SSE) 2,291 5.7 -29.5°
Sets 10:01:24 0° 171° (S) 3,213 6.4 -29.0°
